Regional Weather Roundup
Issued by NWS State College, PA

Home | Current Version | Previous Version | Graphics & Text | Print | Product List | Glossary Off
Versions: 1 2 3 4 5 6 7 8 9 10 11 12 13 14 15 16 17 18 19 20 21 22 23 24 25 26 27 28 29 30 31 32 33 34 35 36 37 38 39 40 41 42 43 44 45 46 47 48 49 50

206
ASUS41 KCTP 261610
RWRCTP

REGIONAL WEATHER ROUNDUP
NATIONAL WEATHER SERVICE STATE COLLEGE PA
1200 PM EDT TUE JUL 26 2016

Note: "fair" indicates few or no clouds below 12,000 feet with no
significant weather and/or obstructions to visibility.

* = STATION THAT DOES NOT REPORT PRECIPITATION /E.G. RAIN...SNOW...ETC/
    THUNDER OR FOG.

PAZ002>004-007>009-013>016-020>023-029>032-261700-
WESTERN PENNSYLVANIA

CITY           SKY/WX    TMP DP  RH WIND       PRES   REMARKS
ERIE           SUNNY     76  62  62 W7        30.06S
MEADVILLE      SUNNY     76  59  55 N7        30.08S
FRANKLIN*      SUNNY     79  59  50 NW7       30.10R
NEW CASTLE     FAIR      80  64  58 N6        30.08R
BEAVER COUNTY  SUNNY     82  64  54 NW3       30.07R
BUTLER*        CLOUDY    81  66  61 NE3       30.09S
PITTSBURGH INT CLOUDY    83  63  50 NW6       30.06R
PITTSBURGH     PTSUNNY   82  65  56 W5        30.05S
INDIANA*       MOSUNNY   82  68  61 VRB7      30.09S
LATROBE        NOT AVBL
WASHINGTON CO* CLOUDY    84  66  54 W6        30.07R
$$

PAZ004>006-010>012-017>019-024>028-033>037-041-042-045-046-049>053-261700-
CENTRAL PENNSYLVANIA

CITY           SKY/WX    TMP DP  RH WIND       PRES   REMARKS
BRADFORD       SUNNY     75  57  53 NW12      30.08R
DUBOIS         MOSUNNY   81  61  50 VRB6      30.06F
CLEARFIELD     MOSUNNY   82  62  50 W10       30.05S
JOHNSTOWN      MOSUNNY   80  63  55 NW9       30.09S
ALTOONA        CLOUDY    86  63  45 NW5       30.05S
STATE COLLEGE  MOSUNNY   82  64  54 NW12      30.02F
WILLIAMSPORT   PTSUNNY   84  67  56 SW7       29.96F
SELINSGROVE    MOSUNNY   85  73  67 VRB3      29.98S
FT INDIANTOWN  MOSUNNY   83  69  62 VRB2      29.98S
CAPITAL CITY   MOSUNNY   88  68  51 N9        29.97S
HARRISBURG     MOSUNNY   86  70  58 NW12      29.96S
YORK           MOSUNNY   87  70  56 CALM      29.97F
$$

PAZ038>040-043-044-047-048-054-055-060>062-067>071-261700-
EASTERN PENNSYLVANIA

CITY           SKY/WX    TMP DP  RH WIND       PRES   REMARKS
SCRANTON       MOSUNNY   83  68  60 CALM      29.97F
MOUNT POCONO   MOSUNNY   77  60  55 W15G26    30.01S
ALLENTOWN      MOSUNNY   85  70  60 W5        29.95F
QUAKERTOWN*    MOSUNNY   84  70  61 CALM      29.97S
READING        MOSUNNY   85  69  58 NW9       29.95S
LANCASTER      SUNNY     84  70  62 NW7       29.97S
COATESVILLE    SUNNY     84  72  65 W9G15     29.99S
POTTSTOWN      SUNNY     86  67  52 VRB3      29.97S
BLUE BELL      MOSUNNY   82  70  65 W5        29.95S
DOYLESTOWN     MOSUNNY   84  64  50 W6        29.94F
WILLOW GROVE   NOT AVBL
NORTH PHILA    SUNNY     89  67  47 VRB6      29.95F
PHILADELPHIA   PTSUNNY   89  67  47 NW9       29.94S
$$




USA.gov is the U.S. government's official web portal to all federal, state and local government web resources and services.